X  Close Light rain until this afternoon, starting again tomorrow morning.
Conditions Temperature Feels Precipitation Wind Wind Direction UV index Pressure
09:00 rain Light Rain and Windy 10° 6° 1.2 mm 100% 26-45 mph SW SW - 1009,4
10:00 rain Light Rain and Windy 10° 2.09 mm 100% 26-46 mph SW SW uv-1 1008,7
11:00 rain Light Rain and Windy 11° 1.35 mm 75% 26-46 mph SW SW uv-1 1008,1
12:00 rain Light Rain and Windy 11° 1.3 mm 72% 26-46 mph WSW WSW uv-1 1007,5
13:00 rain Possible Light Rain and Windy 11° 0.93 mm 57% 26-46 mph WSW WSW uv-1 1006,9
14:00 rain Possible Light Rain and Windy 11° 0.49 mm 45% 27-45 mph West West uv-1 1006,3
15:00 rain Possible Drizzle and Windy 10° 0.24 mm 37% 27-43 mph WSW WSW uv-1 1006,0
16:00 rain Possible Drizzle and Windy 10° 5° 0.12 mm 31% 25-40 mph SW SW - 1006,3
17:00 rain Possible Drizzle 9° 5° 0.06 mm 26% 22-36 mph NW NW - 1006,9
18:00 cloudy Overcast 8° 4° 0.03 mm 15% 20-32 mph West West - 1007,3
19:00 cloudy Overcast 8° 4° 0.01 mm 10% 18-30 mph WSW WSW - 1007,6
20:00 partly-cloudy-night Mostly Cloudy 8° 4° 0.01 mm 4% 17-29 mph WNW WNW - 1007,9
21:00 partly-cloudy-night Mostly Cloudy 7° 3° 0.01 mm 4% 16-28 mph West West - 1008,1
22:00 partly-cloudy-night Partly Cloudy 7° 3° 0.02 mm 8% 16-27 mph WNW WNW - 1008,2
23:00 partly-cloudy-night Partly Cloudy 7° 3° 0.08 mm 18% 15-27 mph WSW WSW - 1008,3
00:00 rain Possible Drizzle 6° 2° 0.13 mm 26% 15-27 mph West West - 1008,2
01:00 partly-cloudy-night Mostly Cloudy 6° 2° 0.09 mm 24% 15-27 mph SW SW - 1007,8
02:00 partly-cloudy-night Mostly Cloudy 6° 2° 0.04 mm 17% 15-27 mph NW NW - 1007,3
03:00 partly-cloudy-night Mostly Cloudy 5° 1° 0.02 mm 14% 15-27 mph West West - 1006,6
04:00 partly-cloudy-night Mostly Cloudy 5° 1° 0.03 mm 17% 15-27 mph North North - 1006,0
05:00 partly-cloudy-night Mostly Cloudy 5° 1° 0.05 mm 23% 14-28 mph SSE SSE - 1005,5
06:00 rain Possible Drizzle 5° 1° 0.07 mm 26% 14-28 mph WSW WSW - 1004,9
07:00 rain Possible Drizzle 5° 1° 0.11 mm 34% 15-27 mph West West - 1004,3
08:00 rain Possible Drizzle 6° 1° 0.3 mm 51% 17-26 mph West West - 1003,7
09:00 rain Possible Light Rain 6° 1° 0.46 mm 56% 19-25 mph West West - 1003,1
10:00 rain Possible Drizzle 6° 2° 0.33 mm 48% 19-25 mph West West uv-1 1002,7
11:00 rain Possible Drizzle 7° 2° 0.17 mm 33% 20-26 mph West West uv-1 1002,3
12:00 rain Possible Drizzle 7° 2° 0.18 mm 33% 20-28 mph West West uv-1 1001,7
13:00 rain Possible Drizzle 6° 2° 0.3 mm 50% 21-32 mph SW SW uv-1 1000,7
14:00 rain Possible Light Rain 6° 1° 0.48 mm 64% 21-37 mph NW NW uv-1 999,5
15:00 rain Light Rain and Windy 5° -0° 0.59 mm 68% 22-40 mph West West uv-1 998,6
16:00 rain Possible Light Rain and Windy 5° -1° 0.5 mm 62% 22-41 mph SSW SSW - 998,3
17:00 rain Possible Drizzle and Windy 5° -1° 0.37 mm 50% 23-39 mph NNW NNW - 998,3
18:00 rain Possible Drizzle 5° -1° 0.3 mm 45% 24-38 mph West West - 998,3
19:00 rain Possible Drizzle 4° -1° 0.25 mm 43% 24-37 mph West West - 998,4
20:00 rain Possible Drizzle 4° -1° 0.2 mm 40% 23-37 mph West West - 998,4
21:00 rain Possible Drizzle 4° -2° 0.17 mm 33% 23-36 mph WNW WNW - 998,6
22:00 rain Possible Drizzle 4° -2° 0.15 mm 28% 22-36 mph WNW WNW - 999,0
23:00 rain Possible Drizzle 3° -3° 0.13 mm 25% 22-36 mph WNW WNW - 999,4
00:00 partly-cloudy-night Mostly Cloudy 3° -3° 0.11 mm 23% 22-37 mph WNW WNW - 999,8
01:00 partly-cloudy-night Mostly Cloudy 3° -3° 0.07 mm 18% 22-38 mph WNW WNW - 1000,2
02:00 partly-cloudy-night Partly Cloudy 3° -3° 0.03 mm 10% 23-39 mph WNW WNW - 1000,4
03:00 wind Windy and Partly Cloudy 3° -3° 0.01 mm 9% 24-40 mph WNW WNW - 1000,8
04:00 wind Windy and Partly Cloudy 4° -2° 0.01 mm 7% 24-40 mph WNW WNW - 1001,5
05:00 wind Windy and Partly Cloudy 4° -2° 0.01 mm 4% 24-39 mph WNW WNW - 1002,4
06:00 clear-night Clear 4° -2° 0.01 mm 5% 24-39 mph WNW WNW - 1003,3
07:00 clear-night Clear 4° -2° 0.01 mm 5% 24-39 mph WNW WNW - 1004,4
08:00 clear-day Clear 5° -1° 0.01 mm 6% 25-39 mph WNW WNW - 1005,5
09:00 clear-day Clear 5° -1° 0.01 mm 6% 24-38 mph WNW WNW - 1006,7